Fortuna, CA

3:30 AM PDT on September 15, 2019 (GMT -0700)
Rohnerville

Weather History for KFOT - July, 2019

Change the Weather History Date:

Saturday, July 20, 2019

  Actual Average (WUND) Record (WUND)
Temperature  
Mean Temperature 57 °F -  
Max Temperature 64 °F - - (-1)
Min Temperature 50 °F - - (-1)
Degree Days  
Heating Degree Days 8    
Growing Degree Days 7 (Base 50)    
Moisture  
Dew Point 52 °F    
Average Humidity 84    
Maximum Humidity 94    
Minimum Humidity 68    
Precipitation  
Precipitation 0.00 in - - ()
Sea Level Pressure  
Sea Level Pressure 29.98 in    
Wind  
Wind Speed 5 mph (NW)    
Max Wind Speed 17 mph    
Max Gust Speed 22 mph    
Visibility 9 miles    
Events      
Averages and records for this station are not official NWS values.
T = Trace of Precipitation, MM = Missing Value Source: NWS Daily Summary

Daily Weather History Graph

Daily Weather History Graph

Search for Another Location

Airport or City:

Astronomy

Jul. 20, 2019 Rise Set
Actual Time 6:02 AM PDT 8:42 PM PDT
Civil Twilight 5:30 AM PDT 9:14 PM PDT
Nautical Twilight 4:51 AM PDT 9:54 PM PDT
Astronomical Twilight 4:05 AM PDT 10:38 PM PDT
Moon 11:11 PM PDT (7/20) 9:32 AM PDT (7/20)
Length of Visible Light 15h 43m
Length of Day
14h 39m
Waning Gibbous, 86% of the Moon is Illuminated
Jul 20
Waning Gibbous
Jul 24
Last Quarter
Jul 31
New
Aug 7
First Quarter
Aug 15
Full

Hourly Weather History & Observations

Time (PDT) Temp. Dew Point Humidity Pressure Visibility Wind Dir Wind Speed Gust Speed Precip Events Conditions
12:10 AM 53.6 °F 50.0 °F 88% 29.98 in 9.0 mi Calm Calm - N/A   Overcast
12:30 AM 53.6 °F 50.0 °F 88% 29.98 in 9.0 mi Calm Calm - N/A   Overcast
12:50 AM 53.6 °F 50.0 °F 88% 29.98 in 9.0 mi Calm Calm - N/A   Overcast
1:10 AM 53.6 °F 50.0 °F 88% 29.98 in 9.0 mi Calm Calm - N/A   Overcast
1:30 AM 53.6 °F 50.0 °F 88% 29.97 in 9.0 mi Calm Calm - N/A   Overcast
1:50 AM 53.6 °F 50.0 °F 88% 29.96 in 8.0 mi Calm Calm - N/A   Overcast
2:10 AM 53.6 °F 50.0 °F 88% 29.96 in 5.0 mi Calm Calm - N/A   Overcast
2:30 AM 53.6 °F 50.0 °F 88% 29.95 in 9.0 mi ESE 5.8 mph - N/A   Overcast
2:50 AM 53.6 °F 50.0 °F 88% 29.95 in 9.0 mi ESE 5.8 mph - N/A   Overcast
3:10 AM 53.6 °F 50.0 °F 88% 29.94 in 9.0 mi East 5.8 mph - N/A   Overcast
3:30 AM 53.6 °F 50.0 °F 88% 29.93 in 9.0 mi ESE 8.1 mph - N/A   Overcast
3:50 AM 53.6 °F 50.0 °F 88% 29.92 in 10.0 mi ESE 8.1 mph - N/A   Overcast
4:10 AM 53.6 °F 50.0 °F 88% 29.92 in 10.0 mi ESE 9.2 mph - N/A   Overcast
4:30 AM 53.6 °F 50.0 °F 88% 29.93 in 10.0 mi ESE 5.8 mph - N/A   Overcast
4:50 AM 51.8 °F 50.0 °F 94% 29.93 in 10.0 mi ESE 5.8 mph - N/A   Scattered Clouds
5:10 AM 51.8 °F 48.2 °F 88% 29.93 in 10.0 mi ESE 9.2 mph - N/A   Clear
5:30 AM 50.0 °F 48.2 °F 94% 29.93 in 10.0 mi SE 6.9 mph - N/A   Scattered Clouds
5:50 AM 50.0 °F 48.2 °F 94% 29.94 in 10.0 mi SE 5.8 mph - N/A   Scattered Clouds
6:10 AM 50.0 °F 48.2 °F 94% 29.94 in 9.0 mi East 3.5 mph - N/A   Mostly Cloudy
6:30 AM 51.8 °F 50.0 °F 94% 29.95 in 9.0 mi Calm Calm - N/A   Overcast
6:50 AM 53.6 °F 50.0 °F 88% 29.95 in 9.0 mi Calm Calm - N/A   Overcast
7:10 AM 53.6 °F 50.0 °F 88% 29.96 in 9.0 mi Calm Calm - N/A   Overcast
7:30 AM 53.6 °F 50.0 °F 88% 29.96 in 8.0 mi Calm Calm - N/A   Overcast
7:50 AM 53.6 °F 50.0 °F 88% 29.96 in 8.0 mi Calm Calm - N/A   Overcast
8:10 AM 53.6 °F 50.0 °F 88% 29.97 in 9.0 mi Calm Calm - N/A   Overcast
8:30 AM 53.6 °F 50.0 °F 88% 29.97 in 9.0 mi Calm Calm - N/A   Overcast
8:50 AM 55.4 °F 50.0 °F 82% 29.97 in 10.0 mi North 3.5 mph - N/A   Overcast
9:10 AM 55.4 °F 51.8 °F 88% 29.98 in 9.0 mi Calm Calm - N/A   Overcast
9:30 AM 55.4 °F 51.8 °F 88% 29.98 in 9.0 mi Calm Calm - N/A   Mostly Cloudy
9:50 AM 57.2 °F 51.8 °F 82% 29.97 in 9.0 mi North 3.5 mph - N/A   Partly Cloudy
10:10 AM 59.0 °F 53.6 °F 82% 29.97 in 10.0 mi NW 3.5 mph - N/A   Partly Cloudy
10:30 AM 62.6 °F 53.6 °F 72% 29.97 in 10.0 mi NNW 5.8 mph - N/A   Partly Cloudy
10:50 AM 62.6 °F 53.6 °F 72% 29.97 in 10.0 mi NW 5.8 mph - N/A   Scattered Clouds
11:10 AM 64.4 °F 53.6 °F 68% 29.97 in 10.0 mi WNW 9.2 mph - N/A   Partly Cloudy
11:30 AM 64.4 °F 55.4 °F 73% 29.98 in 10.0 mi NW 10.4 mph - N/A   Partly Cloudy
11:50 AM 64.4 °F 55.4 °F 73% 29.98 in 8.0 mi NW 11.5 mph - N/A   Partly Cloudy
12:10 PM 64.4 °F 55.4 °F 73% 29.98 in 9.0 mi NW 12.7 mph - N/A   Partly Cloudy
12:30 PM 64.4 °F 55.4 °F 73% 29.99 in 10.0 mi WNW 15.0 mph - N/A   Partly Cloudy
12:50 PM 64.4 °F 53.6 °F 68% 29.99 in 10.0 mi WNW 13.8 mph - N/A   Scattered Clouds
1:10 PM 64.4 °F 53.6 °F 68% 29.99 in 9.0 mi West 12.7 mph - N/A   Partly Cloudy
1:30 PM 62.6 °F 53.6 °F 72% 29.99 in 10.0 mi WNW 13.8 mph - N/A   Partly Cloudy
1:50 PM 64.4 °F 53.6 °F 68% 29.99 in 10.0 mi WNW 16.1 mph - N/A   Partly Cloudy
2:10 PM 64.4 °F 53.6 °F 68% 29.99 in 10.0 mi WNW 16.1 mph - N/A   Partly Cloudy
2:30 PM 64.4 °F 53.6 °F 68% 29.99 in 10.0 mi WNW 15.0 mph 19.6 mph N/A   Partly Cloudy
2:50 PM 62.6 °F 53.6 °F 72% 29.99 in 9.0 mi WNW 17.3 mph 20.7 mph N/A   Partly Cloudy
3:10 PM 62.6 °F 53.6 °F 72% 29.99 in 10.0 mi West 17.3 mph 20.7 mph N/A   Partly Cloudy
3:30 PM 62.6 °F 53.6 °F 72% 29.99 in 9.0 mi WNW 17.3 mph - N/A   Partly Cloudy
3:50 PM 62.6 °F 53.6 °F 72% 29.99 in 9.0 mi West 15.0 mph 21.9 mph N/A   Partly Cloudy
4:10 PM 62.6 °F 53.6 °F 72% 29.99 in 10.0 mi WNW 12.7 mph - N/A   Scattered Clouds
4:30 PM 62.6 °F 53.6 °F 72% 30.00 in 10.0 mi West 13.8 mph 18.4 mph N/A   Mostly Cloudy
4:50 PM 62.6 °F 53.6 °F 72% 30.00 in 10.0 mi West 15.0 mph 20.7 mph N/A   Partly Cloudy
5:10 PM 60.8 °F 53.6 °F 77% 30.00 in 10.0 mi West 15.0 mph 20.7 mph N/A   Partly Cloudy
5:30 PM 59.0 °F 53.6 °F 82% 30.00 in 10.0 mi WNW 13.8 mph 18.4 mph N/A   Scattered Clouds
5:50 PM 59.0 °F 53.6 °F 82% 30.00 in 10.0 mi WNW 15.0 mph - N/A   Scattered Clouds
6:10 PM 59.0 °F 53.6 °F 82% 30.00 in 10.0 mi WNW 11.5 mph - N/A   Mostly Cloudy
6:30 PM 57.2 °F 53.6 °F 88% 30.00 in 9.0 mi WNW 9.2 mph - N/A   Overcast
6:50 PM 57.2 °F 53.6 °F 88% 30.00 in 9.0 mi NW 9.2 mph - N/A   Overcast
7:10 PM 57.2 °F 53.6 °F 88% 30.00 in 9.0 mi NW 10.4 mph - N/A   Overcast
7:30 PM 57.2 °F 53.6 °F 88% 30.00 in 9.0 mi NNW 9.2 mph - N/A   Overcast
7:50 PM 57.2 °F 53.6 °F 88% 30.00 in 9.0 mi NNW 10.4 mph - N/A   Overcast
8:10 PM 57.2 °F 53.6 °F 88% 30.00 in 8.0 mi NNW 8.1 mph - N/A   Overcast
8:30 PM 57.2 °F 53.6 °F 88% 30.00 in 9.0 mi NNW 5.8 mph - N/A   Overcast
8:50 PM 57.2 °F 53.6 °F 88% 30.00 in 9.0 mi NW 6.9 mph - N/A   Overcast
9:10 PM 57.2 °F 53.6 °F 88% 30.00 in 9.0 mi NW 6.9 mph - N/A   Overcast
9:30 PM 55.4 °F 53.6 °F 94% 30.01 in 10.0 mi NW 6.9 mph - N/A   Overcast
9:50 PM 55.4 °F 53.6 °F 94% 30.01 in 9.0 mi NNW 8.1 mph - N/A   Overcast
10:10 PM 55.4 °F 53.6 °F 94% 30.01 in 10.0 mi NW 8.1 mph - N/A   Overcast
10:50 PM 55.4 °F 53.6 °F 94% 30.00 in 10.0 mi North 5.8 mph - N/A   Overcast
11:10 PM 55.4 °F 53.6 °F 94% 30.00 in 10.0 mi NW 9.2 mph - N/A   Overcast
11:30 PM 55.4 °F 53.6 °F 94% 30.01 in 9.0 mi NNW 6.9 mph - N/A   Overcast
11:50 PM 55.4 °F 53.6 °F 94% 30.00 in 9.0 mi NNW 8.1 mph - N/A   Overcast